Location: ???????
(55.4362°N, 38.1183°E)
Time: 18:24:49
(UTC+00:00)

Cosmos 1626 - Pass Details

Date: 17 June 2021
Orbit: 489 x 493 km, 82.5° (Epoch: 29 July)

Event Time Altitude Azimuth Distance (km) Brightness Sun altitude
Exits shadow 19:29:42 - 196° (SSW) 2,395 5.1 -7.2°
Reaches altitude 10° 19:31:24 10° 198° (SSW) 1,687 4.4 -7.3°
Maximum altitude 19:35:05 71° 283° (WNW) 528 2.4 -7.5°
Drops below altitude 10° 19:38:48 10° 8° (N) 1,703 5.8 -7.8°
Sets 19:40:56 0° 11° (N) 2,592 6.7 -7.9°
